Location: Plainartige
(45.6866°N, 1.7993°E)
Time: 03:13:06
(UTC+00:00)

deb r/b Ablestar - Pass Details

Date: 27 September 2021
Orbit: 844 x 997 km, 67.7° (Epoch: 16 October)

Event Time Altitude Azimuth Distance (km) Brightness Sun altitude
Rises 18:41:48 0° 333° (NNW) 3,412 ? -11.5°
Reaches altitude 10° 18:45:30 10° 358° (N) 2,476 ? -12.2°
Maximum altitude 18:48:35 15° 31° (NNE) 2,166 ? -12.7°
Enters shadow 18:51:31 11° 62° (ENE) 2,456 ? -13.2°
